This is the latest recevied weather packets stored in our database for station/object KN6KS. If no packets are shown the sender has not sent any weather packets the latest 10 day(s).
| Time | Temp. | Humidity | Pressure | Rain* | Wind** | Luminosity | Snow |
|---|---|---|---|---|---|---|---|
| 1777859574 | 13.33° C | 65% | 1008.4 hPa | 0 mm | - | 46 W/m² | - |
| 1777859270 | 13.33° C | 66% | 1008.5 hPa | 0 mm | - | 46 W/m² | - |
| 1777858966 | 13.33° C | 66% | 1008.7 hPa | 0 mm | - | 49 W/m² | - |
| 1777858664 | 13.33° C | 65% | 1008.6 hPa | 0 mm | - | 56 W/m² | - |
| 1777858362 | 13.89° C | 65% | 1008.4 hPa | 0 mm | - | 77 W/m² | - |
| 1777858058 | 13.89° C | 65% | 1008.7 hPa | 0 mm | - | 92 W/m² | - |
| 1777857756 | 13.89° C | 65% | 1008.5 hPa | 0 mm | - | 104 W/m² | - |
| 1777857452 | 13.89° C | 65% | 1008.7 hPa | 0 mm | - | 114 W/m² | - |
| 1777857149 | 13.89° C | 64% | 1008.4 hPa | 0 mm | - | 141 W/m² | - |
| 1777856845 | 13.89° C | 64% | 1008.6 hPa | 0 mm | - | 154 W/m² | - |
| 1777856541 | 13.89° C | 64% | 1008.4 hPa | 0 mm | - | 168 W/m² | - |
| 1777856238 | 13.89° C | 64% | 1008.4 hPa | 0 mm | - | 183 W/m² | - |
| 1777855935 | 13.89° C | 64% | 1008.2 hPa | 0 mm | - | 199 W/m² | - |
| 1777855633 | 13.89° C | 64% | 1008.5 hPa | 0 mm | - | 216 W/m² | - |
| 1777855330 | 13.89° C | 64% | 1008.4 hPa | 0 mm | - | 242 W/m² | - |
| 1777855026 | 14.44° C | 63% | 1008.6 hPa | 0 mm | - | 251 W/m² | - |
| 1777854723 | 14.44° C | 64% | 1008.4 hPa | 0 mm | - | 276 W/m² | - |
| 1777854420 | 14.44° C | 63% | 1008.3 hPa | 0 mm | - | 280 W/m² | - |
| 1777854117 | 14.44° C | 64% | 1008.2 hPa | 0 mm | - | 308 W/m² | - |
| 1777853815 | 14.44° C | 64% | 1008.5 hPa | 0 mm | - | 325 W/m² | - |
| 1777853511 | 14.44° C | 63% | 1008.4 hPa | 0 mm | - | 338 W/m² | - |
| 1777853208 | 14.44° C | 64% | 1008.5 hPa | 0 mm | - | 356 W/m² | - |
| 1777852905 | 15° C | 63% | 1008.5 hPa | 0 mm | - | 366 W/m² | - |
| 1777852603 | 15° C | 63% | 1008.3 hPa | 0 mm | - | 379 W/m² | - |
| 1777852300 | 15° C | 65% | 1008.3 hPa | 0 mm | - | 394 W/m² | - |
* Rain latest hour (hover to see other rain measurements)
** Current wind speed in m/s (hover to see current wind gust speed)